Probability
2 2 2 2 1 0 1 2 2 1 1 0 0 0 0 0 1 2 3 6 12 14 11 7 4 3 3 3 4 5 7 7 6 5 4 3 4 4 3 3 3 3 3
2 3 4 5 4 3 5 6 5 3 2 1 0 0 0 1 2 3 3 6 10 12 10 8 6 5 5 5 6 7 8 7 6 6 5 5 4 4 3 3 3 3 3
5 6 8 8 6 7 12 12 9 6 3 2 2 2 2 2 3 3 3 4 5 7 9 10 10 8 8 8 9 9 9 9 8 8 7 6 5 4 3 3 3 3 3
6 9 12 11 9 10 14 14 11 7 5 5 4 3 3 3 3 3 3 4 4 5 8 11 12 10 9 9 9 9 9 10 10 10 8 6 5 4 3 3 3 3 3
6 9 13 15 13 12 14 13 10 8 7 7 5 4 4 5 5 4 4 5 5 5 6 9 10 10 8 8 8 9 9 9 9 9 8 7 5 5 4 2 1 1 2
8 10 14 16 15 13 13 12 9 8 8 8 6 4 5 6 8 8 7 6 5 3 4 8 10 9 7 6 8 9 8 8 7 7 8 7 6 6 5 3 1 1 1
12 12 14 16 15 13 12 11 10 9 8 7 6 5 5 6 7 9 10 9 7 4 4 9 13 12 8 6 7 7 7 6 5 6 8 8 7 7 6 4 4 2 1
16 16 17 18 17 14 11 10 10 9 7 6 6 6 6 5 5 7 10 10 9 6 6 9 14 15 12 8 7 6 7 6 6 6 7 7 7 8 7 7 7 5 4
18 20 23 23 20 15 12 12 12 11 9 8 7 7 7 6 5 6 8 10 10 10 8 9 12 16 18 17 12 9 8 8 8 8 8 8 9 9 10 10 10 8 7
22 24 27 27 23 17 14 13 14 13 11 10 10 9 8 8 8 7 8 9 10 11 10 8 10 16 21 21 18 13 9 9 9 10 9 9 10 10 10 11 11 10 9
24 24 26 26 23 19 16 15 15 16 14 12 11 11 11 11 10 7 7 8 9 10 9 10 12 16 18 18 16 14 11 8 8 8 8 7 8 8 9 9 10 10 11
27 25 23 22 22 20 17 14 16 17 16 13 11 11 11 11 10 8 6 6 8 8 9 11 13 15 16 15 13 11 9 8 6 5 4 4 4 5 7 7 8 10 10
29 26 22 21 21 19 16 15 17 19 18 14 11 9 10 11 11 9 8 7 8 9 9 9 11 12 14 16 13 9 8 7 5 3 1 2 2 3 4 6 7 8 8
27 25 23 23 22 19 17 18 19 19 19 16 12 11 11 11 10 10 10 10 9 9 8 8 8 10 12 14 12 10 9 6 3 1 0 0 1 1 2 3 4 5 5
24 24 24 24 24 22 22 22 21 19 19 18 16 14 13 10 9 10 11 12 10 8 8 8 9 11 11 11 11 12 11 6 2 0 0 0 0 0 0 1 1 2 2
23 24 24 25 26 25 25 23 20 18 18 19 17 16 14 10 8 8 10 11 11 10 9 9 11 12 12 11 11 13 12 7 2 1 1 1 0 0 0 0 0 0 0
22 23 24 25 26 25 25 22 17 15 16 16 15 15 13 11 9 9 9 10 10 11 10 10 11 13 13 12 11 11 11 7 5 3 2 2 1 0 0 0 0 0 0
21 22 23 24 23 22 21 19 17 15 15 13 12 13 12 11 11 9 8 8 10 11 11 11 11 13 14 13 12 10 9 8 6 4 3 2 1 0 0 0 0 0 0
18 20 22 22 21 19 17 17 17 17 15 13 12 12 11 11 10 8 6 8 10 11 13 13 12 12 13 13 11 9 8 7 6 4 3 2 1 0 0 0 0 0 0
17 19 21 21 19 17 15 14 15 15 14 13 11 10 9 9 8 5 5 7 9 11 13 12 10 8 9 10 9 7 7 6 4 3 3 2 1 1 1 0 0 0 0
17 19 21 20 17 14 13 13 13 14 13 11 10 9 8 8 6 3 2 3 5 8 10 9 7 5 6 7 7 6 6 5 4 5 6 5 3 3 2 1 1 0 0
19 20 21 20 17 13 11 11 12 13 12 10 10 9 8 6 5 2 1 1 2 3 5 6 6 6 7 8 8 7 6 6 6 7 8 7 5 4 4 3 2 1 0
21 21 21 21 18 13 9 8 9 10 11 11 10 9 8 6 4 3 2 1 1 1 2 3 5 7 8 9 9 8 7 6 6 7 7 7 6 6 5 3 2 1 0
22 22 24 25 21 14 9 7 6 8 10 10 9 8 8 8 5 4 4 3 2 2 2 1 2 4 5 6 7 7 7 6 5 5 7 7 7 7 5 3 2 1 0
23 24 26 27 25 17 9 5 5 8 9 10 9 8 8 8 5 4 4 4 4 3 3 1 1 2 2 3 3 4 5 5 4 4 7 8 8 7 6 4 3 2 1
24 24 26 28 27 19 9 4 5 8 10 10 9 9 8 7 5 4 4 5 5 4 3 2 2 2 2 2 2 2 4 4 4 4 7 8 8 7 6 5 5 3 3
Wind_Speed
1 1 0 0 1 1 2 1 2 2 2 2 3 3 3 2 2 2 4 9 10 10 10 9 9 9 8 8 8 7 7 7 7 7 6 6 6 7 7 7 7 6 6
1 1 0 0 1 0 0 1 2 2 2 2 3 3 3 3 1 2 4 7 10 9 9 9 9 9 9 9 8 8 7 7 7 7 7 7 7 7 7 7 7 6 6
1 0 1 0 1 1 1 1 2 2 2 2 3 3 2 2 2 2 4 4 5 7 8 8 8 8 8 9 8 8 7 7 7 7 7 7 7 7 7 7 7 7 6
0 0 1 1 1 1 1 1 1 1 2 2 2 3 2 2 3 3 3 4 4 5 7 9 9 9 9 9 9 8 8 8 7 7 7 7 7 8 8 8 7 7 7
1 1 1 1 2 1 1 2 0 1 2 2 3 3 2 3 3 3 3 4 4 4 5 8 10 9 10 10 10 9 8 8 8 8 8 8 8 8 8 8 8 8 8
1 1 1 1 1 1 1 1 2 2 3 3 4 3 3 3 2 2 3 3 3 4 4 6 6 7 9 9 9 9 8 8 8 8 8 8 8 8 8 8 8 8 8
1 1 2 1 1 1 1 2 1 2 3 2 2 3 3 3 3 3 2 3 3 3 4 5 5 5 5 9 9 9 9 9 8 8 8 8 8 8 8 8 8 8 8
1 1 0 1 1 1 1 2 1 2 3 2 1 2 2 1 2 3 3 3 3 3 4 5 4 4 4 4 6 9 8 8 8 8 7 7 7 7 8 8 8 8 8
1 2 1 1 1 1 1 2 1 2 2 2 1 1 1 1 2 1 2 2 2 2 2 2 4 4 4 4 5 8 9 8 8 8 8 8 7 7 7 8 9 9 9
1 1 1 1 1 2 2 2 1 2 2 2 2 2 1 1 1 2 2 1 3 2 2 2 2 4 4 4 5 7 8 8 8 8 8 7 7 7 8 8 9 9 9
0 1 1 1 2 2 2 2 2 2 2 3 3 2 1 1 3 2 2 1 1 2 2 2 2 2 3 3 4 5 8 8 8 7 7 7 7 7 7 8 9 9 9
0 1 1 1 1 2 2 2 2 2 2 3 3 3 2 1 1 2 3 2 2 2 2 2 2 2 2 3 4 7 8 7 7 7 7 7 6 7 7 7 8 9 9
0 0 1 1 1 2 2 2 1 2 2 3 2 2 3 2 2 2 2 2 2 1 2 1 2 2 2 2 3 6 7 8 7 7 7 6 6 6 6 6 7 8 8
1 1 0 0 1 2 2 2 2 2 2 2 2 2 2 3 2 2 1 1 2 2 1 1 1 2 2 2 4 6 5 8 8 8 7 6 6 6 6 6 6 7 7
1 1 1 1 1 1 2 2 1 2 2 2 2 2 2 2 2 2 2 1 1 2 2 1 1 1 2 2 5 4 4 7 8 8 8 7 7 6 6 6 6 6 6
1 1 1 1 1 1 2 2 1 1 2 2 2 2 3 3 3 3 2 2 1 1 2 1 1 0 1 1 4 3 4 8 9 9 10 9 8 8 7 7 6 6 6
1 1 1 1 1 1 2 2 2 1 2 2 3 3 3 3 3 3 3 2 2 2 2 2 1 1 1 1 2 2 2 4 5 9 10 10 10 9 8 8 7 6 6
1 1 1 1 1 1 1 1 2 2 2 2 2 3 3 3 4 4 3 3 2 2 2 3 2 2 1 1 2 3 2 4 3 7 10 11 10 10 9 9 8 7 7
1 1 1 0 1 1 2 2 2 2 2 1 2 2 2 3 3 3 3 3 3 3 2 2 2 1 1 1 1 2 2 2 4 4 8 9 10 10 10 10 10 9 8
1 0 0 1 0 1 1 2 2 2 2 1 1 1 1 2 2 3 3 3 3 3 3 2 2 1 1 1 1 1 2 2 2 2 3 5 8 10 10 10 10 10 10
1 1 0 0 1 0 1 2 3 1 1 2 1 1 0 2 2 3 3 3 3 2 2 2 2 2 2 2 2 2 2 2 2 2 1 2 3 3 5 8 9 11 11
1 1 1 0 1 1 2 2 2 2 2 2 2 2 1 1 1 1 3 4 3 2 2 2 2 1 2 2 2 3 2 2 2 2 2 3 2 3 4 4 7 10 11
1 1 1 1 1 1 0 1 2 3 3 2 1 2 3 2 2 2 2 3 3 1 2 2 2 2 2 2 2 3 3 3 3 3 3 3 2 2 3 3 5 7 8
2 2 2 2 2 2 2 2 3 4 4 3 2 2 1 0 1 2 3 2 2 1 2 2 1 2 2 2 2 3 4 4 4 3 2 3 2 2 2 1 4 6 7
2 3 3 3 3 3 3 3 3 3 3 4 3 2 2 2 1 2 2 3 2 2 2 3 4 5 5 5 4 3 3 3 3 3 2 2 2 2 2 1 2 5 6
3 4 4 3 3 3 4 4 3 3 4 3 2 2 1 2 2 1 2 3 4 3 3 4 4 6 6 7 7 4 3 3 3 3 2 2 3 2 3 2 1 2 3
Wind_Direction
95 77 37 334 212 172 184 215 233 235 253 257 251 242 242 254 212 152 146 168 174 176 179 184 188 195 198 196 197 199 202 204 207 206 201 200 205 210 211 212 209 205 206
84 54 282 263 315 266 233 239 255 245 239 250 256 250 240 238 209 164 156 171 181 179 181 187 192 198 201 198 198 198 197 202 202 203 204 205 207 209 209 208 208 204 202
109 117 284 240 273 262 241 238 274 277 263 259 257 260 239 220 218 188 166 164 170 179 182 187 192 199 200 200 200 198 197 199 201 204 204 204 204 206 209 210 211 209 204
112 237 268 259 254 253 248 240 230 269 284 281 275 265 244 213 208 199 178 167 166 170 182 191 193 200 201 202 202 203 202 200 201 205 205 205 206 207 209 210 211 211 208
255 254 231 257 262 261 261 283 349 265 271 271 264 248 230 220 207 201 186 185 172 166 171 185 189 196 198 200 202 204 204 204 204 207 209 209 210 210 210 211 212 213 212
263 282 237 243 290 330 341 345 303 281 270 270 276 273 232 215 206 189 189 184 176 184 185 177 184 195 199 198 200 202 204 207 209 209 211 211 212 212 213 215 215 217 216
282 270 340 330 332 336 311 287 298 300 283 277 290 295 266 227 204 186 186 183 186 187 184 178 181 182 189 198 200 201 206 210 208 208 209 210 213 214 216 219 217 216 216
287 269 302 316 314 288 300 303 317 287 292 308 302 304 300 313 294 215 185 189 193 191 185 188 177 177 186 169 184 193 201 206 207 207 208 209 213 214 215 217 219 219 219
322 324 14 327 316 295 291 288 271 287 291 305 283 264 288 296 295 274 212 196 188 189 182 183 185 184 185 165 167 191 197 202 209 213 214 214 215 217 218 219 220 222 221
260 316 350 343 324 315 314 294 343 300 297 296 282 240 224 212 275 304 276 214 199 200 194 211 195 185 181 165 161 168 187 200 205 213 217 218 219 221 223 223 225 226 225
265 353 28 360 348 330 328 331 331 325 307 301 301 292 253 222 232 241 269 256 228 208 194 195 189 172 171 167 162 166 179 191 201 209 214 220 224 225 226 227 229 231 230
191 76 30 359 351 334 330 329 319 319 308 307 313 319 311 267 248 245 254 253 238 229 183 191 175 165 166 164 176 164 174 183 198 208 214 218 222 226 227 229 231 233 233
237 115 20 348 342 320 318 328 327 318 309 301 306 310 309 300 291 272 273 274 270 247 183 197 185 171 178 153 153 167 178 184 195 201 205 213 220 225 228 233 235 235 236
340 43 36 321 319 316 326 330 332 321 328 320 315 311 303 310 311 293 272 283 294 289 218 210 172 174 176 160 174 184 183 186 194 198 201 209 217 222 225 233 238 238 240
339 27 360 352 341 332 327 323 356 349 336 330 331 344 322 308 308 302 296 270 260 285 283 232 203 182 177 163 174 192 179 188 197 204 205 208 213 217 221 227 234 237 240
349 344 348 7 356 334 322 332 344 347 347 347 342 357 336 323 317 310 305 292 272 258 277 288 272 207 208 201 177 193 198 194 206 207 206 206 211 216 220 224 228 231 235
342 354 6 12 10 6 355 3 350 9 5 351 348 354 337 328 323 316 318 318 319 304 275 293 322 294 223 211 190 219 204 201 204 207 206 207 210 215 217 219 223 227 232
48 45 47 24 352 16 6 2 347 2 6 3 357 351 339 341 338 337 333 327 310 296 284 285 287 279 257 207 201 227 227 225 214 209 205 207 211 215 218 219 221 224 227
39 32 58 46 349 11 21 6 3 355 351 358 352 339 344 350 342 333 324 324 312 309 284 272 276 284 274 284 249 256 257 254 244 207 202 208 214 218 222 221 220 219 221
164 169 5 318 337 32 28 3 344 328 332 329 314 322 0 6 348 321 315 326 319 311 301 292 285 288 300 317 324 301 299 298 285 253 209 205 214 219 223 222 220 216 219
212 208 221 306 292 233 3 360 319 319 324 318 313 312 40 64 28 349 345 340 332 327 325 324 322 343 350 349 333 311 303 298 299 289 255 225 213 218 220 224 220 217 219
239 251 257 257 304 337 9 5 335 323 317 309 321 321 245 127 49 338 341 339 332 324 341 333 336 349 346 348 334 319 322 324 305 306 294 266 226 224 225 217 215 214 215
224 234 239 223 219 141 161 328 322 300 285 284 283 300 312 24 46 355 315 309 324 296 255 283 303 310 316 325 315 311 310 300 283 283 285 275 262 240 246 236 206 208 213
228 235 235 225 212 196 208 238 278 271 266 257 246 246 258 37 338 335 308 311 301 304 255 240 264 284 295 300 284 282 281 282 276 276 270 270 273 273 276 250 215 214 218
249 247 243 236 219 195 210 227 254 274 267 259 240 240 211 185 281 332 294 292 292 287 281 253 250 247 252 264 269 287 296 294 289 289 284 272 284 293 281 255 226 217 225
243 250 249 241 226 201 201 210 219 267 275 270 239 206 183 188 215 263 271 279 277 280 285 276 263 255 247 247 240 234 264 290 293 290 304 302 300 316 304 283 266 215 228